IK3ZGB Weather Reports


Display with metric or nautical units.
time (UTC)temp
F
wind
direction
speed
MPH
gust
MPH
rain 1hr
in
rain 24hr
in
rain mn
in
humidity
%
barometer
mb
20260504004845 61 0.0 0.0 0.00 0.00 0.00 68 1017.9
20260504003844 61 0.0 0.0 0.00 0.00 0.00 68 1018.1
20260504002844 61 0.0 0.0 0.00 0.00 0.00 68 1018.3
20260504001844 61 0.0 0.0 0.00 0.00 0.00 68 1018.2
20260504000845 61 0.0 0.0 0.00 0.00 0.00 67 1018.2
20260503235845 62 0.0 0.0 0.00 0.00 0.00 66 1018.1
20260503234844 62 0.0 0.0 0.00 0.00 0.00 66 1018.3
20260503233845 62 0.0 0.0 0.00 0.00 0.00 66 1018.3
20260503232846 62 0.0 0.0 0.00 0.00 0.00 65 1018.4
20260503231846 63 0.0 0.0 0.00 0.00 0.00 65 1018.4
20260503230844 63 0.0 0.0 0.00 0.00 0.00 64 1018.3
20260503225844 63 0.0 0.0 0.00 0.00 0.00 64 1018.6
20260503224844 63 0.0 0.0 0.00 0.00 0.00 64 1018.1
20260503223844 63 0.0 0.0 0.00 0.00 0.00 64 1018.2
20260503222844 64 0.0 0.0 0.00 0.00 0.00 62 1018.4
20260503221846 64 0.0 0.0 0.00 0.00 0.00 61 1018.2
20260503220844 64 0.0 0.0 0.00 0.00 0.00 61 1018.2
20260503215846 64 0.0 0.0 0.00 0.00 0.00 61 1018.0
20260503214844 64 0.0 0.0 0.00 0.00 0.00 60 1018.0
20260503213845 65 0.0 0.0 0.00 0.00 0.00 60 1017.8
20260503212844 64 0.0 0.0 0.00 0.00 0.00 59 1018.0
20260503211844 65 0.0 0.0 0.00 0.00 0.00 59 1018.0
20260503210846 66 0.0 0.0 0.00 0.00 0.00 58 1018.1
20260503205845 66 0.0 0.0 0.00 0.00 0.00 58 1018.1
20260503204844 66 0.0 0.0 0.00 0.00 0.00 58 1017.9
20260503203844 67 0.0 0.0 0.00 0.00 0.00 57 1017.8
20260503202845 66 0.0 0.0 0.00 0.00 0.00 56 1017.4
20260503201845 67 0.0 0.0 0.00 0.00 0.00 56 1017.7
20260503200846 67 0.0 0.0 0.00 0.00 0.00 55 1017.6
20260503195844 67 0.0 0.0 0.00 0.00 0.00 55 1017.6
20260503194845 68 0.0 0.0 0.00 0.00 0.00 55 1017.5
20260503193845 68 0.0 0.0 0.00 0.00 0.00 54 1017.4
20260503192844 69 0.0 0.0 0.00 0.00 0.00 54 1017.3
20260503191844 69 0.0 0.0 0.00 0.00 0.00 54 1017.1
20260503190845 70 0.0 0.0 0.00 0.00 0.00 54 1017.1
20260503185844 70 0.0 0.0 0.00 0.00 0.00 54 1017.1
20260503184846 70 0.0 0.0 0.00 0.00 0.00 54 1016.8
20260503183844 70 0.0 0.0 0.00 0.00 0.00 54 1016.7
20260503182845 70 0.0 0.0 0.00 0.00 0.00 54 1016.7
20260503181844 71 0.0 0.0 0.00 0.00 0.00 55 1016.5
20260503180844 71 0.0 0.0 0.00 0.00 0.00 55 1016.2
20260503175845 72 0.0 0.0 0.00 0.00 0.00 54 1016.0
20260503174845 72 0.0 0.0 0.00 0.00 0.00 54 1016.1
20260503173844 73 0.0 0.0 0.00 0.00 0.00 53 1015.7
20260503172844 73 0.0 0.0 0.00 0.00 0.00 53 1015.8
20260503171845 74 0.0 0.0 0.00 0.00 0.00 53 1015.8
20260503170844 74 0.0 0.0 0.00 0.00 0.00 53 1015.7
20260503150845 77 0.0 0.0 0.00 0.00 0.00 49 1016.4
20260503130845 78 0.0 0.0 0.00 0.00 0.00 48 1017.2
20260503080846 76 0.0 0.0 0.00 0.00 0.00 51 1019.9
20260503072844 75 0.0 0.0 0.00 0.00 0.00 51 1020.0
20260503071845 74 0.0 0.0 0.00 0.00 0.00 51 1020.0
20260503070844 72 0.0 0.0 0.00 0.00 0.00 52 1020.0
20260503054845 76 0.0 0.0 0.00 0.00 0.00 50 1019.9
20260503053845 79 0.0 0.0 0.00 0.00 0.00 49 1020.1
20260503052845 79 0.0 0.0 0.00 0.00 0.00 50 1020.3
20260503051844 71 0.0 0.0 0.00 0.00 0.00 53 1020.6
20260503050844 65 0.0 0.0 0.00 0.00 0.00 59 1021.2
20260503045845 63 0.0 0.0 0.00 0.00 0.00 62 1021.2
20260503044845 60 0.0 0.0 0.00 0.00 0.00 64 1021.3
20260503043845 58 0.0 0.0 0.00 0.00 0.00 66 1021.2
20260503042844 57 0.0 0.0 0.00 0.00 0.00 67 1021.2
20260503041844 56 0.0 0.0 0.00 0.00 0.00 68 1021.0
20260503040844 56 0.0 0.0 0.00 0.00 0.00 67 1020.9
20260503035846 56 0.0 0.0 0.00 0.00 0.00 67 1021.0
20260503034845 57 0.0 0.0 0.00 0.00 0.00 66 1020.9
20260503033845 57 0.0 0.0 0.00 0.00 0.00 65 1020.7
20260503032844 58 0.0 0.0 0.00 0.00 0.00 64 1020.6
20260503031844 58 0.0 0.0 0.00 0.00 0.00 64 1021.2
20260503030844 58 0.0 0.0 0.00 0.00 0.00 64 1020.9
20260503025845 59 0.0 0.0 0.00 0.00 0.00 63 1021.2
20260503024844 58 0.0 0.0 0.00 0.00 0.00 63 1021.0
20260503023845 58 0.0 0.0 0.00 0.00 0.00 63 1020.9
20260503022845 58 0.0 0.0 0.00 0.00 0.00 63 1021.3
20260503021845 58 0.0 0.0 0.00 0.00 0.00 64 1021.3
20260503020844 58 0.0 0.0 0.00 0.00 0.00 65 1021.2
20260503015844 56 0.0 0.0 0.00 0.00 0.00 66 1021.2
20260503014844 58 0.0 0.0 0.00 0.00 0.00 67 1021.0
20260503013845 57 0.0 0.0 0.00 0.00 0.00 66 1021.0
20260503012845 57 0.0 0.0 0.00 0.00 0.00 67 1021.1
20260503011845 57 0.0 0.0 0.00 0.00 0.00 67 1021.2
20260503010844 58 0.0 0.0 0.00 0.00 0.00 67 1021.0